Lapse_Rate
6.6 6.6 6.7 6.8 7.1 7.3 7.1 6.9 6.9 6.9 6.9 7.3 7.7 7.7 7.7 7.6 7.6 7.2 7.0 7.4 7.6 7.6 7.7 7.7 7.7 7.7 7.6 7.6 7.4 7.3 7.4 7.4 7.5 7.6 7.6 7.5 7.1 6.8 6.6 6.6 6.3 6.2 6.2 6.1 5.8 5.7 5.6 5.7 5.8
6.8 6.8 6.8 6.9 7.0 7.4 7.0 7.1 7.1 7.2 7.0 7.0 7.6 7.8 7.6 7.7 7.6 7.6 7.7 7.6 7.7 7.8 7.8 7.7 7.7 7.6 7.6 7.5 7.4 7.2 7.1 7.1 7.2 7.4 7.5 7.3 7.2 6.9 6.8 6.6 6.3 6.2 6.1 6.0 5.9 5.7 5.6 5.7 5.9
6.9 7.0 7.0 6.9 6.8 6.8 6.9 7.3 7.6 7.8 7.5 7.3 7.6 7.7 7.7 7.3 7.0 7.0 7.2 7.5 7.6 7.5 7.6 7.6 7.7 7.7 7.6 7.5 7.4 7.4 7.1 7.0 7.0 7.2 7.4 7.4 7.1 7.0 6.8 6.7 6.5 6.3 6.1 6.0 5.9 5.8 5.7 5.7 5.9
6.8 7.0 7.0 6.7 6.5 6.4 6.6 7.1 7.3 7.6 7.6 7.5 7.6 7.5 7.5 7.2 6.7 6.8 6.8 6.8 7.0 7.4 7.6 7.5 7.5 7.6 7.4 7.5 7.3 7.1 7.2 7.0 7.0 7.0 7.2 7.4 7.3 7.0 6.9 6.9 6.7 6.4 6.3 6.1 5.9 5.8 5.7 5.7 5.9
6.9 6.9 7.0 6.6 6.2 6.4 6.7 6.9 7.0 7.4 7.6 7.4 7.5 7.5 7.3 6.9 6.7 7.0 6.9 7.1 7.5 7.6 7.4 7.4 7.5 7.5 7.4 7.4 7.3 7.1 6.9 7.0 6.9 7.0 7.3 7.5 7.5 7.4 7.2 7.0 7.0 6.5 6.3 6.1 6.1 5.9 5.7 5.8 6.0
6.7 6.9 7.0 6.7 6.3 6.4 6.9 7.3 7.0 7.1 7.1 7.3 7.4 7.1 7.1 6.8 6.7 6.9 7.2 7.3 7.5 7.5 7.3 7.4 7.3 7.3 7.4 7.4 7.5 7.4 7.2 7.0 6.9 6.8 6.7 7.0 7.3 7.4 7.4 7.1 7.0 6.8 6.5 6.3 6.1 5.9 5.8 5.8 6.0
6.6 6.6 6.8 6.6 6.4 6.4 6.7 7.2 7.5 7.4 7.2 7.2 7.2 7.0 6.8 6.8 6.9 7.0 6.8 7.1 7.2 7.3 7.4 7.5 7.5 7.4 7.5 7.6 7.4 7.3 7.4 7.3 7.2 7.1 6.7 6.7 6.9 7.1 7.4 7.3 7.1 7.0 6.6 6.4 6.2 5.9 5.8 5.8 5.9
6.5 6.4 6.6 6.6 6.6 6.4 6.5 6.9 7.4 7.7 7.6 7.5 7.3 7.1 7.0 7.0 6.9 7.0 7.2 7.4 7.4 7.3 7.2 7.2 7.1 7.2 6.9 7.2 7.3 7.3 7.3 7.1 7.3 7.2 7.1 6.8 6.7 6.9 7.1 7.3 7.2 7.2 6.8 6.6 6.3 6.1 5.8 5.9 5.9
6.5 6.5 6.6 6.6 6.5 6.4 6.4 6.6 7.0 7.1 7.2 7.1 6.7 6.8 6.8 7.0 7.2 7.5 7.6 7.6 7.6 7.6 7.5 7.2 6.7 6.6 6.8 6.7 7.0 7.1 7.2 7.2 7.1 7.3 7.1 7.2 7.1 6.9 6.8 7.0 7.1 7.0 6.9 6.8 6.5 6.3 5.9 5.9 6.0
6.5 6.6 6.4 6.4 6.2 6.3 6.5 6.5 6.7 6.8 6.9 6.9 6.7 6.9 6.9 6.8 6.8 6.9 7.2 7.1 6.9 6.8 6.7 6.7 6.8 6.6 6.4 6.6 6.5 6.9 6.9 6.9 7.1 7.1 6.9 6.8 7.2 7.0 7.0 6.9 7.0 7.1 6.9 6.8 6.7 6.4 6.1 6.0 6.0
6.5 6.5 6.3 6.3 6.4 6.5 6.6 6.6 6.7 6.4 6.5 6.7 6.9 6.7 6.6 6.5 6.3 6.2 6.2 6.4 6.5 6.5 6.5 6.3 6.4 6.5 6.4 6.3 6.2 6.2 6.7 6.7 6.9 6.8 6.7 6.5 7.1 7.2 7.1 7.0 7.0 6.9 7.0 6.7 6.7 6.6 6.4 6.2 6.1
6.4 6.3 6.3 6.3 6.4 6.4 6.4 6.4 6.5 6.1 6.2 6.0 6.1 6.4 6.3 6.1 6.1 6.1 6.0 5.9 5.8 5.7 5.6 5.8 6.0 6.0 6.1 6.2 6.3 6.1 6.0 6.1 6.4 6.6 6.4 6.1 6.7 7.0 7.0 7.0 7.0 6.8 6.8 6.8 6.8 6.7 6.5 6.3 6.1
6.6 6.5 6.3 6.1 6.2 6.2 6.4 6.5 6.2 6.2 6.2 6.0 6.0 6.1 6.2 6.2 6.0 6.0 6.2 6.1 5.8 5.6 5.6 5.6 5.8 6.1 6.0 6.0 6.1 6.2 6.1 5.9 5.9 6.0 6.4 6.1 6.5 6.5 6.6 6.9 7.0 7.0 6.9 6.9 6.7 6.7 6.7 6.3 6.2
6.5 6.7 6.5 6.4 6.5 6.4 6.4 6.4 6.0 6.4 6.1 6.0 6.0 6.1 5.9 5.8 5.8 5.8 5.9 5.9 6.0 6.0 6.0 6.0 6.0 6.0 6.0 6.0 6.0 6.0 6.2 6.3 6.2 6.0 5.9 6.2 6.1 6.4 6.7 6.5 6.8 7.1 7.1 6.8 6.7 6.7 6.6 6.4 6.3
6.5 6.9 6.7 6.5 6.7 6.6 6.6 6.3 6.2 6.1 6.0 6.0 5.9 5.9 5.8 5.9 5.8 6.0 6.0 6.0 6.2 6.3 6.4 6.3 6.1 6.0 6.0 6.0 6.2 6.2 6.3 6.3 6.3 6.2 6.1 6.0 6.0 6.2 6.0 6.4 6.6 6.7 7.0 7.0 6.7 6.6 6.5 6.3 6.4
6.4 6.4 6.6 6.3 6.3 6.3 6.1 6.4 6.2 6.2 6.1 6.0 5.9 6.0 5.9 5.9 5.8 6.0 5.9 5.8 5.8 5.9 6.1 6.2 6.1 6.0 5.9 6.0 6.1 6.1 6.2 6.5 6.7 6.6 6.4 6.3 6.1 6.1 6.4 6.4 6.6 6.8 7.0 6.8 6.9 6.7 6.5 6.3 6.3
6.1 6.0 6.0 6.3 6.2 6.0 5.8 5.7 5.9 6.0 6.0 5.9 5.9 5.9 5.8 5.8 5.8 5.8 5.8 5.9 5.9 5.9 5.8 5.9 5.9 5.9 5.9 5.9 6.0 6.2 6.7 6.7 6.8 6.9 6.8 6.6 6.4 6.3 6.2 6.5 6.6 6.3 6.9 6.3 6.7 6.8 6.6 6.3 6.1
5.6 5.5 5.7 5.8 6.5 6.0 5.9 5.8 5.7 5.7 5.9 5.9 6.0 6.0 6.0 6.0 6.0 6.0 6.1 6.0 6.1 6.1 6.0 5.9 5.9 6.0 6.0 6.0 6.3 6.5 7.0 7.6 7.5 7.7 7.7 7.3 6.9 6.6 6.4 6.4 6.7 6.9 6.2 6.5 7.0 6.7 6.7 6.5 6.3
5.3 5.1 5.0 5.8 6.3 5.8 6.0 5.6 5.6 5.6 5.7 5.8 5.9 6.0 6.1 6.3 6.2 6.3 6.3 6.3 6.3 6.1 6.1 6.0 6.2 6.3 6.5 6.9 7.1 7.2 7.0 7.2 7.6 7.7 7.6 8.0 7.9 7.4 6.7 6.4 6.4 6.7 6.7 5.7 6.3 6.4 6.6 6.5 6.4
5.5 5.1 5.5 5.5 6.0 5.7 5.6 5.6 5.6 5.8 6.0 6.1 6.1 6.3 6.5 6.4 6.1 6.1 6.1 6.2 6.1 6.2 6.1 6.3 6.7 7.1 7.4 7.4 7.2 6.9 6.6 6.8 7.5 7.8 7.4 7.1 7.3 7.7 7.4 6.7 6.5 6.4 5.6 6.7 5.3 5.9 6.3 6.3 6.3
5.4 5.6 5.7 5.6 5.7 5.7 5.7 5.4 5.8 6.2 6.4 6.5 6.6 6.6 6.6 6.4 6.6 6.5 6.4 6.3 6.3 6.5 6.7 7.0 7.2 7.3 7.1 6.9 6.7 6.6 6.4 6.6 7.3 7.6 7.7 7.1 6.8 7.0 7.6 7.2 6.5 6.3 5.4 5.2 6.6 5.6 6.1 6.3 6.3
5.4 6.1 5.6 5.6 5.4 5.5 5.6 4.6 5.6 6.2 6.5 6.6 6.8 6.7 6.6 6.4 6.3 6.3 6.2 6.3 6.5 6.7 6.8 6.9 6.8 6.4 6.3 6.4 6.5 6.6 6.8 7.2 7.3 7.5 7.5 7.2 7.1 7.0 7.1 7.5 6.9 6.0 5.7 5.4 5.6 6.4 5.8 6.1 6.1
6.1 6.0 6.2 5.9 5.7 5.5 5.6 6.2 5.3 5.9 6.9 7.0 6.8 6.6 6.3 6.3 6.3 6.3 6.4 6.4 6.3 6.5 6.5 6.2 5.6 5.9 6.1 6.2 6.4 6.6 7.2 7.5 7.6 7.1 7.0 6.6 7.2 7.1 7.3 7.2 7.1 6.1 5.5 5.2 5.2 5.7 5.1 5.5 6.2
6.3 6.2 6.0 6.0 6.3 4.9 6.8 7.1 5.8 7.0 7.1 6.9 6.7 6.6 6.5 6.5 6.3 6.3 6.5 6.4 6.5 6.5 6.2 5.4 6.0 6.0 6.0 6.4 6.6 7.1 7.3 7.1 6.6 6.3 6.2 6.3 7.0 7.1 6.7 6.7 6.9 6.6 5.6 5.6 4.9 5.4 5.8 5.2 5.9
6.9 6.5 6.2 5.5 5.1 5.8 6.7 6.6 7.1 7.4 7.1 7.3 7.2 7.1 6.8 6.7 6.4 6.4 6.5 6.5 6.4 6.4 5.4 5.5 5.8 5.9 6.0 6.3 6.8 6.9 6.3 6.4 6.2 5.7 5.5 6.0 6.3 6.2 6.1 6.1 6.2 6.3 5.9 5.7 5.4 5.2 5.4 6.0 5.4
7.1 7.2 7.2 6.1 5.1 6.0 7.3 6.8 7.5 7.3 7.8 7.5 7.4 7.2 7.0 6.5 6.2 6.3 6.4 6.2 6.0 5.4 5.3 5.4 5.4 5.5 6.0 6.0 6.3 6.1 5.9 6.0 5.7 5.1 5.2 5.5 5.3 5.6 5.7 5.6 5.8 5.7 5.9 6.1 5.6 4.9 5.3 5.1 5.9
7.0 7.2 7.3 7.4 7.3 6.4 6.9 7.3 7.6 7.9 7.8 7.6 7.4 7.3 6.8 6.3 6.0 6.2 6.1 5.9 5.8 5.0 5.4 5.3 5.1 4.9 5.2 5.4 5.4 5.8 5.9 5.2 4.8 5.1 6.2 6.3 5.2 5.1 5.6 5.4 5.5 5.4 5.9 6.4 5.9 5.1 5.1 5.8 6.0
7.4 7.4 7.2 7.3 6.6 6.7 6.4 6.9 7.7 8.3 7.9 7.6 7.3 6.7 6.3 5.9 5.9 5.8 5.9 6.0 5.6 5.6 5.4 5.0 4.9 4.9 4.8 4.8 4.8 4.9 4.8 4.8 4.1 4.8 5.6 5.5 5.8 5.7 5.7 5.9 5.6 5.7 5.9 6.4 6.6 5.4 5.3 5.4 5.4
7.1 7.0 7.1 7.1 7.0 6.2 5.2 6.5 8.0 8.1 7.9 7.3 7.0 6.6 6.2 5.9 5.9 6.0 6.0 5.9 5.7 5.6 5.4 4.9 5.0 5.1 4.9 5.0 4.7 4.3 4.4 4.3 4.4 4.7 5.7 6.7 6.7 6.8 6.1 6.3 6.5 6.2 6.2 6.6 7.0 6.0 5.9 5.8 5.7
7.1 6.7 6.7 6.9 6.6 6.1 6.3 6.5 7.5 7.6 7.2 7.0 6.7 6.6 6.1 6.0 6.1 6.0 6.0 6.0 6.0 5.6 5.6 5.1 5.3 5.3 5.1 5.0 4.7 4.4 3.8 4.0 4.8 4.9 6.1 6.5 6.7 6.7 5.5 6.2 6.6 6.4 6.6 7.1 7.2 6.7 6.3 6.0 6.3
Wind_Speed
9 9 2 4 3 5 2 2 1 7 5 7 3 10 9 5 3 4 5 8 7 5 3 3 4 4 3 3 5 7 7 7 8 9 11 14 15 16 17 17 17 17 17 17 15 13 11 8 7
5 3 4 2 4 4 4 5 6 3 2 6 6 4 7 5 4 3 6 14 6 3 3 2 3 2 2 2 3 4 6 6 6 7 9 11 12 14 15 15 17 16 16 16 15 13 10 9 7
1 4 4 4 3 3 2 7 8 5 6 2 4 5 4 4 4 3 6 9 7 6 5 2 1 1 1 2 3 4 4 5 5 6 8 9 10 12 13 14 15 15 15 15 15 13 10 9 8
3 4 4 5 4 1 1 7 7 7 7 9 3 7 5 2 2 6 10 10 9 10 14 11 11 11 9 5 1 3 6 7 7 6 8 9 10 11 13 14 14 15 15 15 14 13 12 10 10
4 3 4 4 1 2 1 4 4 10 3 7 2 4 4 4 8 11 14 17 17 16 22 19 22 19 16 14 12 8 3 5 8 8 9 10 11 13 14 16 17 17 16 14 14 13 13 11 10
4 3 5 4 3 2 2 2 3 4 5 5 7 4 2 7 11 10 12 14 15 14 20 25 28 29 27 21 17 11 11 8 6 7 8 9 10 12 14 15 14 16 15 15 14 14 14 13 11
5 4 3 5 4 2 1 3 3 2 5 6 0 4 3 9 7 7 10 11 12 18 19 22 23 26 28 27 26 21 15 9 8 8 9 11 11 12 14 15 15 15 16 15 15 16 15 14 13
4 4 2 2 3 2 2 2 1 3 3 2 2 3 3 2 5 5 9 12 13 14 17 19 21 22 23 21 27 28 22 15 13 11 11 12 12 13 15 16 16 16 17 17 16 16 16 15 14
3 4 1 3 3 1 2 1 3 2 3 3 6 6 5 5 11 17 11 15 14 13 15 20 20 21 22 20 22 24 26 22 16 13 13 12 10 12 14 15 17 17 18 18 17 18 18 17 15
5 3 3 2 2 1 2 2 3 1 6 1 7 7 12 16 16 16 15 13 15 16 15 13 17 17 21 19 19 19 19 18 18 13 9 11 10 10 12 15 20 20 19 19 18 18 17 16 11
1 4 1 3 3 4 2 2 2 2 1 4 6 5 10 14 13 13 12 10 11 10 10 12 13 15 15 15 17 14 15 16 16 17 15 11 8 12 10 9 10 12 15 10 13 12 11 10 9
3 2 2 5 2 5 3 3 2 3 2 6 12 9 10 13 12 12 11 12 13 12 11 12 16 13 15 14 11 12 11 14 12 17 18 12 4 4 7 6 9 10 11 8 10 8 10 11 10
1 4 7 7 10 7 2 7 2 4 6 10 14 14 13 11 10 8 8 8 11 14 15 15 14 12 16 12 12 13 10 10 13 14 18 15 8 6 6 7 8 9 13 9 7 6 7 7 9
3 4 8 8 5 5 7 2 8 3 6 12 14 11 9 10 9 9 12 12 13 13 14 14 14 16 16 10 13 10 13 14 14 14 14 17 15 9 7 8 9 8 13 13 9 9 9 9 8
4 7 8 3 5 2 5 4 5 6 5 12 10 9 8 9 8 9 7 8 9 10 13 14 14 17 13 12 13 13 14 15 11 14 18 17 14 15 11 8 9 10 13 13 9 9 7 8 7
3 4 5 5 7 4 3 1 3 4 5 9 8 7 7 8 7 6 10 11 11 12 13 13 13 14 14 11 13 13 15 15 14 14 16 17 17 16 12 9 10 10 9 10 10 9 8 9 9
6 0 2 9 4 3 5 4 2 4 6 7 6 7 7 7 9 9 10 10 12 12 14 15 15 14 15 15 14 14 15 12 14 15 15 18 18 18 10 10 11 11 11 13 11 10 10 10 9
3 3 2 4 6 6 6 4 3 4 7 6 6 6 7 9 9 10 12 11 11 11 12 14 13 15 15 11 10 9 9 9 15 13 14 19 17 19 10 10 13 11 12 12 12 15 11 11 10
3 3 6 6 10 2 7 4 5 4 5 7 7 9 10 10 8 9 11 11 12 12 14 15 14 15 12 10 12 12 13 12 12 9 19 19 18 18 13 11 12 13 11 15 15 13 14 11 9
5 4 6 6 8 6 7 4 4 3 3 3 6 8 9 11 12 13 13 12 12 13 14 15 16 16 15 12 12 12 12 11 12 13 15 20 17 17 13 13 9 11 10 14 17 15 9 10 11
5 6 5 9 3 4 3 3 4 2 5 5 4 2 4 7 11 12 14 14 14 15 17 17 18 18 16 17 13 11 11 11 11 12 13 14 17 16 15 13 10 10 10 13 16 14 17 11 10
4 6 8 5 2 4 1 6 5 4 6 3 3 5 6 6 7 9 13 16 15 15 16 17 17 18 16 18 16 16 12 15 13 13 12 13 18 18 17 14 12 10 9 8 12 12 18 13 11
7 3 4 4 4 0 2 2 1 5 5 3 3 4 5 6 7 11 11 11 13 14 14 15 17 16 17 17 16 13 15 12 11 12 16 16 15 16 15 14 13 11 8 8 8 11 11 12 12
4 4 3 4 3 2 6 9 3 4 3 2 1 3 5 7 8 9 10 11 12 14 15 15 16 18 17 16 18 16 17 16 13 13 12 11 11 11 13 14 13 12 9 8 8 11 15 16 10
3 4 3 3 1 5 1 3 8 5 4 3 1 4 6 7 8 10 11 10 13 16 15 14 17 18 19 18 17 16 17 17 17 15 11 14 11 11 12 13 11 11 11 10 9 11 16 9 12
2 5 3 5 2 4 2 5 5 3 5 4 3 3 5 7 7 8 9 9 11 13 14 16 18 17 18 18 18 16 17 11 11 12 12 11 11 11 15 13 10 14 11 9 7 8 9 13 10
3 1 5 3 1 1 3 3 0 5 5 3 2 4 6 6 6 7 8 8 10 12 13 14 16 16 17 19 16 16 16 17 14 15 13 11 12 11 18 13 11 9 6 8 6 7 11 14 17
3 3 3 2 4 4 3 3 5 7 9 4 2 2 4 5 6 7 7 9 8 10 9 12 12 14 16 17 16 14 15 16 16 15 16 16 15 16 17 6 6 5 6 7 11 6 7 11 9
6 2 2 3 3 3 2 5 1 3 5 6 4 3 2 4 6 6 7 6 7 8 9 11 13 14 15 16 16 15 16 14 15 15 16 16 17 19 17 11 9 9 9 8 3 4 4 6 8
5 2 3 3 1 3 2 5 2 4 6 5 6 5 3 1 5 5 6 6 7 9 10 11 13 13 14 15 16 16 16 15 16 16 19 21 21 19 18 16 14 11 11 11 10 12 13 13 13
Wind_Direction
323 333 86 40 39 65 37 306 267 336 59 322 6 83 104 93 85 153 327 10 9 48 53 28 29 31 43 79 103 113 107 108 113 121 121 124 131 137 144 144 147 151 148 156 162 168 166 170 174
325 36 48 77 76 48 299 315 326 269 240 191 70 39 52 71 25 49 10 340 11 77 66 35 38 32 75 83 103 105 110 113 121 126 128 132 137 141 147 148 152 151 156 161 167 173 175 177 178
168 47 75 83 87 101 305 325 288 285 323 172 108 63 49 347 356 33 343 331 7 14 17 355 258 253 107 116 127 126 117 122 139 150 145 147 150 152 155 158 159 159 162 166 171 174 175 182 168
33 16 40 79 103 103 48 296 314 345 14 25 23 60 65 2 44 350 349 358 20 12 6 355 348 347 346 343 326 169 159 160 165 175 170 165 165 168 166 168 171 170 171 174 177 174 174 181 164
36 45 69 92 237 228 254 304 342 40 80 15 25 76 75 10 8 26 20 35 34 23 11 10 10 2 356 351 343 322 261 191 180 189 188 186 180 178 177 182 184 180 179 178 175 174 175 182 167
33 94 63 143 210 230 258 313 8 44 17 7 59 81 75 44 41 29 43 44 37 31 23 23 19 14 5 355 347 334 322 297 228 200 208 209 203 195 191 194 197 187 184 188 185 180 178 183 175
99 71 174 176 182 124 248 281 58 24 55 7 197 118 166 52 48 63 58 47 38 31 28 21 11 10 6 3 2 347 325 305 284 239 224 216 215 211 207 204 207 201 191 189 187 185 183 187 179
97 88 113 275 175 183 309 92 147 81 132 246 109 109 79 2 30 75 66 41 32 27 25 15 9 7 2 357 3 1 350 321 295 279 239 228 227 224 219 213 213 211 201 191 192 191 188 193 183
116 55 65 243 128 209 309 129 325 15 44 36 28 54 14 12 33 34 24 21 19 18 15 8 4 4 0 357 357 359 357 349 324 295 287 253 224 225 227 220 216 216 211 199 197 196 193 193 188
75 96 234 221 295 345 262 218 230 39 7 117 82 34 33 37 40 39 27 15 11 7 3 6 360 358 356 355 354 352 352 351 340 321 295 296 253 240 221 219 223 218 216 209 201 202 197 194 183
21 168 206 323 288 319 279 271 208 148 254 13 122 94 49 50 43 39 27 21 3 353 356 356 353 355 355 350 347 347 345 342 340 345 328 289 267 264 256 222 221 222 220 205 204 198 190 192 187
5 247 117 290 309 343 283 313 279 74 158 84 88 88 68 53 43 34 21 8 0 358 355 353 349 350 353 346 344 335 337 338 331 328 329 312 275 233 253 246 218 214 211 204 197 194 192 203 204
151 332 317 270 279 240 271 238 228 92 94 84 82 67 59 54 44 34 23 11 357 355 351 350 346 350 346 346 342 337 331 323 317 319 315 323 304 251 234 243 233 215 207 204 208 200 203 202 205
305 257 272 275 277 250 186 217 112 238 115 80 73 68 58 55 40 25 18 4 1 348 345 342 343 346 342 341 336 329 322 317 316 307 305 311 304 293 256 237 237 223 207 206 208 206 206 211 199
291 322 332 360 335 289 141 72 20 56 89 73 61 67 59 44 30 29 5 355 348 342 334 340 341 342 339 335 332 325 319 317 309 307 302 300 302 308 280 254 225 229 215 198 206 209 205 213 203
23 48 3 303 1 347 122 249 30 13 78 62 49 43 45 31 22 7 360 355 350 341 340 335 337 336 338 332 326 321 319 317 307 302 302 299 296 292 300 268 245 215 214 201 197 201 205 211 206
6 77 345 325 2 342 60 279 132 46 97 71 39 31 19 6 15 7 358 349 344 341 338 340 341 340 336 327 324 320 316 315 312 309 305 299 294 291 283 292 270 222 217 200 198 199 204 207 205
314 344 312 277 289 356 322 233 128 61 86 78 42 20 15 9 2 350 350 347 344 341 341 340 338 339 334 328 324 321 317 312 311 307 302 299 295 289 289 283 287 234 218 219 203 200 197 204 202
244 227 249 258 267 263 254 243 163 118 55 40 26 16 8 359 336 345 346 346 344 349 348 341 337 339 337 335 334 325 323 320 314 306 302 297 288 284 278 273 273 279 219 260 204 205 194 201 185
243 262 268 274 270 178 268 251 153 154 102 88 39 16 358 347 348 347 346 346 354 346 345 344 346 342 339 333 324 320 317 308 305 305 302 300 295 289 275 265 283 298 237 226 230 203 194 201 181
241 224 213 232 308 285 290 259 182 158 128 120 87 45 350 342 337 340 345 351 352 354 348 347 343 339 335 333 325 317 312 306 306 306 301 298 293 285 276 279 281 286 290 229 215 208 199 198 188
264 226 244 248 132 238 85 286 223 166 164 123 42 20 348 337 337 336 346 351 352 351 348 343 343 337 335 333 328 321 313 313 307 301 295 292 293 287 282 285 286 282 286 258 224 219 207 202 189
250 282 251 201 194 221 214 54 35 128 211 197 45 20 346 337 336 348 345 346 349 352 346 347 334 337 339 337 333 325 316 305 301 296 292 290 285 281 277 268 265 260 251 256 241 206 223 212 192
256 299 22 48 99 276 218 177 257 193 189 171 41 357 344 354 354 345 348 351 350 349 350 341 343 344 340 337 338 324 316 314 309 301 301 295 290 278 271 269 262 251 239 231 231 218 221 269 232
99 55 330 321 11 232 134 111 244 177 179 158 150 3 357 354 349 351 345 349 357 354 331 348 348 345 347 343 339 334 332 325 314 308 306 306 298 288 278 271 253 253 240 232 217 212 199 219 252
273 161 174 280 238 267 341 242 278 111 127 128 118 99 13 4 349 338 331 351 360 331 334 353 349 342 347 345 342 340 342 334 328 328 324 313 303 295 282 266 251 262 248 239 214 204 199 216 262
328 79 197 267 262 12 223 301 99 144 178 184 131 49 9 359 338 333 326 349 3 318 344 346 343 343 349 350 344 344 347 347 344 347 342 329 319 316 304 250 258 252 271 261 222 207 182 190 202
189 228 341 358 285 251 276 269 242 217 215 177 297 51 356 344 348 335 335 354 337 329 339 346 343 348 346 349 347 350 346 356 353 354 353 347 344 352 341 27 33 356 328 294 235 203 211 189 190
308 286 108 165 195 247 271 260 277 228 170 184 210 170 267 325 338 321 331 335 318 337 348 348 350 352 357 352 351 355 356 0 7 4 1 360 2 7 357 356 39 22 5 354 259 219 183 205 113
208 129 85 142 328 300 278 269 333 149 160 165 172 169 230 290 300 326 329 331 349 352 353 357 352 359 3 356 357 2 2 3 13 13 13 13 15 10 6 6 31 30 27 32 45 66 65 75 68